Location: Chenango Forks
(42.2242°N, 75.8278°W)
Time: 07:11:49
(UTC-04:00)

Daily predictions for brighter satellites

Satellite Brightness Start Highest point End
(mag) Time Altitude Azimuth Time Altitude Azimuth Time Altitude Azimuth
Cosmos 1452 Rocket 4.2 18:37:01 10° N 18:41:46 33° ENE 18:46:29 10° SE
BREEZE-M DEB (TANK) 4.3 18:23:52 10° WSW 18:42:02 79° NNW 18:46:49 10° ENE
METEOR-M 4.4 18:36:58 10° SE 18:42:03 47° ENE 18:47:10 10° N
CZ-4 R/B 1.5 18:38:06 10° SSE 18:42:20 88° ENE 18:46:31 10° NNW
COSMO-SKYMED 1 3.1 18:38:36 10° NNE 18:42:40 37° E 18:46:41 10° SSE
Meteor 2-15 Rocket 4.4 18:36:37 10° N 18:42:43 77° E 18:48:50 10° SSE
Cosmos 1408 Rocket 3.8 18:43:13 10° N 18:47:40 77° W 18:52:07 10° S
IRS-1A Rocket 4.5 18:43:35 10° SSE 18:49:26 90° WSW 18:55:24 10° NNW
SL-24 R/B - RUBIN 2 4.2 18:45:23 10° NNW 18:50:05 41° NE 18:54:20 10° ESE
SMAP 3.8 18:46:48 10° S 18:51:24 61° W 18:56:01 10° NNW
SL-14 R/B 4.2 18:49:02 10° NNW 18:52:47 53° W 18:56:32 10° S
BREEZE-M DEB (TANK) 1.2 18:51:21 10° WNW 18:53:45 68° SSW 18:55:43 10° SE
Cosmos 2218 Rocket 4.0 18:51:34 10° S 18:57:42 84° E 19:03:52 10° N
DELTA 2 R/B (1) 3.8 18:56:42 10° W 19:02:14 67° S 19:07:30 11° ESE
Cosmos 1626 2.0 19:01:16 10° N 19:05:02 81° E 19:08:46 10° S
FREGAT/IRIS 4.3 19:05:28 15° E 19:06:14 16° ENE 19:08:11 10° NNE
YAOGAN 1 2.9 19:02:42 10° S 19:07:01 71° WSW 19:11:21 10° NNW
COSMOS 2428 3.5 19:02:08 10° N 19:07:11 31° NE 19:12:11 10° ESE
Cosmos 1339 Rocket 4.5 19:01:01 10° N 19:07:23 76° E 19:13:37 10° SSE
Cosmos 2360 Rocket 2.2 19:01:54 10° NNW 19:07:33 66° ENE 19:13:10 10° SE
Cosmos 1727 Rocket 4.0 19:01:16 10° N 19:07:38 74° E 19:13:57 10° SSE
Cosmos 2333 Rocket 3.6 19:06:08 10° N 19:10:14 20° NE 19:12:55 15° E
Cosmos 1833 4.2 19:07:47 10° SSW 19:13:27 75° ESE 19:19:07 10° NNE
SL-8 R/B 3.7 19:09:21 10° SW 19:14:09 75° SSE 19:18:06 15° ENE
ISS -0.4 19:13:58 10° WSW 19:14:32 10° SW 19:15:06 10° SW
Cosmos 2322 Rocket 3.4 19:09:34 10° NW 19:14:53 45° WSW 19:20:11 10° S
Iridium 4 Rocket 4.1 19:10:08 10° SSE 19:15:13 40° E 19:20:36 10° NNE
Cosmos 2219 4.1 19:12:24 10° SSE 19:17:10 27° ESE 19:21:56 10° NE
GP-B 3.4 19:15:37 10° N 19:20:04 72° W 19:24:28 10° S
Cosmos 1315 Rocket 2.9 19:17:22 10° N 19:21:24 58° ENE 19:25:26 10° SSE
Cosmos 2151 3.0 19:18:13 10° N 19:22:32 85° W 19:26:47 10° S
Cosmos 1420 Rocket 4.0 19:22:05 10° NNW 19:27:22 60° ENE 19:32:35 10° SSE
Meteor 2-1 Rocket 4.3 19:22:51 10° S 19:28:38 87° E 19:34:34 10° N
Thor Agena Rocket 3.7 19:23:51 10° NNE 19:28:45 45° E 19:33:34 10° S
GRACE-2 3.6 19:26:41 10° S 19:29:15 82° W 19:31:50 10° N
SKYMED 2 4.0 19:26:27 10° N 19:30:46 64° WNW 19:35:02 10° SSW
EO 1 Del DPAF 4.5 19:27:47 10° N 19:31:28 44° WNW 19:35:07 10° SW
CZ-4C R/B 2.7 19:27:16 10° S 19:31:49 33° ESE 19:34:52 20° ENE
GRACE-1 3.9 19:29:25 10° S 19:31:59 70° W 19:34:33 10° N
Envisat 4.4 19:32:19 18° ENE 19:32:19 18° ENE 19:35:33 10° NNE
APEX 3.1 19:31:11 10° S 19:34:15 36° ESE 19:34:23 36° ESE
FENGYUN 3A 3.6 19:31:12 10° SSE 19:36:35 85° ENE 19:42:02 10° NNW
Cosmos 2322 3.7 19:32:08 10° NNW 19:37:53 89° WSW 19:43:36 10° SSE
Delta 2 Rocket 4.3 19:36:49 10° WSW 19:39:59 27° S 19:41:01 23° SSE
RESURS DK-1 2.8 19:37:29 10° NNW 19:41:36 64° WSW 19:45:40 10° SSE
Cosmos 158 Rocket 3.8 19:37:42 10° S 19:42:40 66° ESE 19:47:49 10° NNE
Lacrosse 5 rocket 3.9 19:43:09 10° NW 19:45:19 13° NNW 19:47:25 10° NNE
SJ-6B 3.0 19:45:28 40° E 19:45:54 42° ENE 19:49:27 10° N
Cosmos 2058 4.1 19:42:04 10° NNW 19:46:04 45° W 19:50:01 10° SSW
Cosmos 2221 2.4 19:42:22 10° S 19:46:41 85° E 19:51:03 10° N
ALOS 2.5 19:42:41 10° S 19:47:19 71° WSW 19:52:00 10° NNW
Cosmos 921 Rocket 3.6 19:51:00 10° NNW 19:55:24 60° WSW 19:59:42 10° S
Atlas Centaur 2 3.8 19:51:44 10° SW 19:55:27 21° S 19:58:04 16° SSE
Cosmos 2219 Rocket 2.4 19:51:28 10° NNW 19:56:52 46° ENE 19:58:26 37° ESE
Resurs 01 Rocket 3.0 19:59:59 24° NNE 19:59:59 24° NNE 20:02:17 10° N
HJ-1C 4.2 20:00:00 39° NNE 20:00:00 39° NNE 20:02:22 10° N
Gbstr 26 Del rocket 3.8 19:55:11 10° NW 20:00:14 58° NNE 20:02:17 38° E
Cosmos 1269 Rocket 3.9 20:01:41 10° SSW 20:06:57 79° ESE 20:12:15 10° NNE
Abrixas rocket 3.8 20:04:21 10° WNW 20:07:04 26° N 20:07:04 26° N
Cosmos 1726 2.0 20:06:29 10° S 20:10:11 83° W 20:13:54 10° N
Cosmos 1535 Rocket 4.3 20:04:42 10° S 20:10:50 84° E 20:16:58 10° N
USA 267 3.3 20:09:10 36° ENE 20:11:43 55° SE 20:18:05 10° SSW
Meteor 2-10 3.8 20:07:55 10° S 20:12:52 62° E 20:17:54 10° NNE
Cosmos 2333 4.2 20:07:47 10° NNW 20:13:32 87° WSW 20:16:56 26° SSE
Cosmos 2098 Rocket 3.7 20:16:05 10° SSW 20:20:21 64° W 20:25:53 10° N
NOSS 0 Rocket 3.9 20:14:29 10° NNW 20:20:34 56° ENE 20:21:21 52° E
H-2A R/B 3.5 20:19:22 20° S 20:21:51 51° W 20:25:40 10° NNW
Cosmos 44 3.1 20:19:27 10° SW 20:23:48 70° NW 20:24:23 60° N
Cosmos 2237 Rocket 2.7 20:22:35 10° NNW 20:27:16 42° NE 20:27:16 42° NE
In-Cosmos 22 Rocket 4.1 20:22:48 10° N 20:28:33 73° E 20:29:30 60° SE
Sich 1 3.1 20:24:35 10° N 20:28:51 77° WNW 20:28:51 77° WNW
Spot 2 Rocket 4.2 20:37:27 43° N 20:37:27 43° N 20:40:57 10° N
SL-16 R/B 3.9 20:32:55 10° N 20:35:24 20° NNE 20:35:24 20° NNE
Aureole 2 Rocket 4.0 20:33:43 10° NNW 20:36:10 37° NW 20:36:10 37° NW
Meteor 2-2 Rocket 4.5 20:32:44 10° S 20:39:43 55° NNE 20:44:06 10° NNE
Cosmos 44 Rocket 3.9 20:38:40 10° SW 20:43:14 50° NW 20:43:51 47° NNW
Cosmos 1110 Rocket 4.2 20:39:14 10° NNW 20:43:46 65° N 20:43:46 65° N
Cosmos 1666 Rocket 4.3 20:40:23 10° NNW 20:44:09 50° WNW 20:44:09 50° WNW
USA 234 3.8 20:46:39 42° NE 20:47:00 42° NNE 20:53:06 10° NW
Cosmos 1934 Rocket 4.4 20:41:29 10° SSW 20:47:45 61° W 20:54:04 10° N
DELTA 2 R/B (1) 4.4 20:43:09 10° W 20:48:16 40° SSW 20:48:16 40° SSW
Cosmos 1980 4.1 20:45:46 10° NNW 20:50:12 54° N 20:50:12 54° N
COSMOS 2428 3.8 20:46:14 10° NW 20:51:31 40° WSW 20:54:29 23° SSW
Cosmos 1633 Rocket 4.3 20:48:40 10° NNW 20:51:38 38° NW 20:51:38 38° NW
Cosmos 2333 Rocket 2.3 20:49:22 10° NNW 20:54:58 74° W 20:54:58 74° W
CZ-3A R/B 4.0 20:40:48 10° WNW 21:00:13 60° NNE 21:01:29 54° ENE
Cosmos 2219 4.2 20:55:34 10° SW 21:01:03 45° WNW 21:05:22 16° N
Envisat 4.2 21:12:32 37° NW 21:12:32 37° NW 21:15:45 10° NNW
CZ-4C R/B 3.3 21:15:08 10° WSW 21:20:07 41° NW 21:20:07 41° NW
Resurs 01 Rocket 4.4 21:37:34 15° NW 21:37:34 15° NW 21:38:36 10° NW
Cosmos 2219 Rocket 4.0 21:36:00 10° NW 21:40:13 25° W 21:40:13 25° W
USA 267 4.3 21:56:35 39° WNW 21:56:35 39° WNW 22:00:55 10° WSW
